Tracking 31013 objects as of 11-Jul-2025
HD Live streaming from Space Station
objects crossing your sky now

RADUGA 6

Track RADUGA 6 now!
RADUGA 6 is classified as:


NORAD ID: 11708
Int'l Code: 1980-016A
Perigee: 35,780.0 km
Apogee: 35,797.0 km
Inclination: 6.6 °
Period: 1,435.8 minutes
Semi major axis: 42159 km
RCS: 1.2589 m2 (large)
Launch date: February 20, 1980
Source: Commonwealth of Independent States (former USSR) (CIS)
Launch site: TYURATAM MISSILE AND SPACE COMPLEX (TTMTR)
Your satellite tracking list
Your tracking list is empty




NASA's NSSDC Master Catalog

Two Line Element Set (TLE):
1 11708U 80016A   25191.77095399 -.00000320  00000-0  00000-0 0  9995
2 11708   6.5562 289.9881 0002019 281.2907 101.4656  1.00290497118745
Source of the keplerian elements: AFSPC